• In Russia
  • List of Countries
  • For 7 days
  • Water Temperature
  • Satellite Maps
  • Weather Map
  • Weather Widgets
  • user-avatar
    Login

    Hourly Weather Eisenstadt

    Today, 6 December, Tuesday

    Time Temperature Precipitation Wind Pressure Humidity
    00:00 -3°C° 0 mm 1 mps 729 mmHg 79%
    01:00 -3°C° 0 mm 1 mps 729 mmHg 80%
    02:00 -3°C° 0 mm 1 mps 729 mmHg 80%
    03:00 -3°C° 0 mm 1 mps 729 mmHg 79%
    04:00 -3°C° 0 mm 1 mps 729 mmHg 78%
    05:00 -3°C° 0 mm 1 mps 729 mmHg 78%
    06:00 -3°C° 0 mm 1 mps 729 mmHg 78%
    07:00 -3°C° 0 mm 1 mps 729 mmHg 80%
    08:00 -2°C° 0 mm 1 mps 730 mmHg 72%
    09:00 0°C° 0 mm 1 mps 730 mmHg 64%
    10:00 +1°C° 0 mm 1 mps 730 mmHg 57%
    11:00 +1°C° 0 mm 2 mps 730 mmHg 54%
    12:00 +2°C° 0 mm 2 mps 731 mmHg 51%
    13:00 +3°C° 0 mm 2 mps 731 mmHg 48%
    14:00 +2°C° 0 mm 2 mps 731 mmHg 56%
    15:00 -1°C° 0 mm 2 mps 731 mmHg 64%
    16:00 -3°C° 0 mm 2 mps 731 mmHg 72%
    17:00 -3°C° 0 mm 2 mps 731 mmHg 73%
    18:00 -3°C° 0 mm 2 mps 731 mmHg 74%
    19:00 -3°C° 0 mm 2 mps 732 mmHg 76%
    20:00 -4°C° 0 mm 2 mps 732 mmHg 77%
    21:00 -4°C° 0 mm 2 mps 733 mmHg 78%
    22:00 -4°C° 0 mm 2 mps 733 mmHg 80%
    23:00 -4°C° 0 mm 2 mps 733 mmHg 80%

    Tomorrow, 7 December, Wednesday

    Time Temperature Precipitation Wind Pressure Humidity
    00:00 -4°C° 0 mm 2 mps 733 mmHg 81%
    01:00 -4°C° 0 mm 2 mps 734 mmHg 81%
    02:00 -2°C° 0 mm 1 mps 734 mmHg 83%
    03:00 -3°C° 0 mm 1 mps 734 mmHg 84%
    04:00 -3°C° 0 mm 1 mps 734 mmHg 85%
    05:00 -3°C° 0 mm 1 mps 734 mmHg 86%
    06:00 -3°C° 0 mm 1 mps 734 mmHg 87%
    07:00 -4°C° 0 mm 0 mps 734 mmHg 88%
    08:00 -2°C° 0 mm 1 mps 735 mmHg 81%
    09:00 0°C° 0 mm 1 mps 736 mmHg 73%
    10:00 +1°C° 0 mm 1 mps 736 mmHg 66%
    11:00 +2°C° 0 mm 1 mps 736 mmHg 64%
    12:00 +2°C° 0 mm 2 mps 736 mmHg 62%
    13:00 +2°C° 0 mm 2 mps 736 mmHg 60%
    14:00 +1°C° 0 mm 2 mps 736 mmHg 68%
    15:00 -1°C° 0 mm 2 mps 736 mmHg 75%
    16:00 -3°C° 0 mm 2 mps 735 mmHg 83%
    17:00 -3°C° 0 mm 2 mps 735 mmHg 84%
    18:00 -3°C° 0 mm 2 mps 736 mmHg 85%
    19:00 -4°C° 0 mm 2 mps 736 mmHg 85%
    20:00 -4°C° 0 mm 2 mps 735 mmHg 85%
    21:00 -4°C° 0 mm 2 mps 735 mmHg 84%
    22:00 -4°C° 0 mm 2 mps 735 mmHg 83%
    23:00 -4°C° 0 mm 2 mps 735 mmHg 83%

    Day after tomorrow, 8 December, Thursday

    Time Temperature Precipitation Wind Pressure Humidity
    00:00 -4°C° 0 mm 2 mps 735 mmHg 82%
    01:00 -4°C° 0 mm 2 mps 735 mmHg 82%
    02:00 -4°C° 0 mm 2 mps 735 mmHg 81%
    03:00 -4°C° 0 mm 2 mps 734 mmHg 81%
    04:00 -4°C° 0 mm 2 mps 734 mmHg 80%
    05:00 -4°C° 0 mm 2 mps 734 mmHg 80%
    06:00 -4°C° 0 mm 2 mps 734 mmHg 80%
    07:00 -4°C° 0 mm 2 mps 734 mmHg 79%
    08:00 -2°C° 0 mm 2 mps 734 mmHg 73%
    09:00 +1°C° 0 mm 1 mps 734 mmHg 66%
    10:00 +3°C° 0 mm 1 mps 734 mmHg 59%
    11:00 +4°C° 0 mm 1 mps 734 mmHg 57%
    12:00 +4°C° 0 mm 2 mps 734 mmHg 54%
    13:00 +5°C° 0 mm 2 mps 733 mmHg 52%
    14:00 +3°C° 0 mm 2 mps 733 mmHg 60%
    15:00 +1°C° 0 mm 2 mps 732 mmHg 67%
    16:00 -1°C° 0 mm 2 mps 732 mmHg 75%
    17:00 -1°C° 0 mm 2 mps 732 mmHg 75%
    18:00 0°C° 0 mm 1 mps 732 mmHg 76%
    19:00 0°C° 0 mm 1 mps 732 mmHg 76%
    20:00 0°C° 0 mm 1 mps 732 mmHg 73%
    21:00 0°C° 0 mm 1 mps 732 mmHg 70%
    22:00 0°C° 0 mm 1 mps 732 mmHg 66%
    23:00 0°C° 0 mm 1 mps 731 mmHg 65%

    9 December, Friday

    Time Temperature Precipitation Wind Pressure Humidity
    00:00 0°C° 0 mm 1 mps 731 mmHg 64%
    01:00 0°C° 0 mm 1 mps 731 mmHg 62%
    02:00 +1°C° 0 mm 1 mps 731 mmHg 59%
    03:00 +1°C° 0 mm 1 mps 731 mmHg 56%
    04:00 +1°C° 0 mm 1 mps 730 mmHg 53%
    05:00 +2°C° 0 mm 1 mps 731 mmHg 51%
    06:00 +2°C° 0 mm 1 mps 731 mmHg 48%
    07:00 +2°C° 0 mm 2 mps 731 mmHg 45%
    08:00 +3°C° 0 mm 2 mps 731 mmHg 44%
    09:00 +4°C° 0 mm 2 mps 731 mmHg 42%
    10:00 +5°C° 0 mm 2 mps 731 mmHg 41%
    11:00 +6°C° 0 mm 2 mps 731 mmHg 42%
    12:00 +8°C° 0 mm 1 mps 731 mmHg 42%
    13:00 +9°C° 0 mm 1 mps 731 mmHg 43%
    14:00 +7°C° 0 mm 1 mps 731 mmHg 48%
    15:00 +4°C° 0 mm 2 mps 731 mmHg 53%
    16:00 +2°C° 0 mm 2 mps 730 mmHg 59%
    17:00 +2°C° 0 mm 2 mps 730 mmHg 55%
    18:00 +2°C° 0 mm 2 mps 730 mmHg 52%
    19:00 +2°C° 0 mm 2 mps 730 mmHg 49%
    20:00 +1°C° 0 mm 2 mps 730 mmHg 50%
    21:00 +2°C° 0 mm 1 mps 730 mmHg 52%
    22:00 +2°C° 0 mm 1 mps 730 mmHg 53%
    23:00 +2°C° 0 mm 1 mps 730 mmHg 53%

    10 December, Saturday

    Time Temperature Precipitation Wind Pressure Humidity
    00:00 +2°C° 0 mm 1 mps 730 mmHg 52%
    01:00 +2°C° 0 mm 1 mps 729 mmHg 52%
    02:00 +2°C° 0 mm 1 mps 729 mmHg 55%
    03:00 +1°C° 0 mm 1 mps 728 mmHg 59%
    04:00 +1°C° 0 mm 1 mps 728 mmHg 62%
    05:00 +1°C° 0 mm 1 mps 728 mmHg 62%
    06:00 +1°C° 0 mm 1 mps 728 mmHg 61%
    07:00 +1°C° 0 mm 1 mps 728 mmHg 60%
    08:00 +3°C° 0 mm 1 mps 728 mmHg 53%
    09:00 +5°C° 0 mm 1 mps 728 mmHg 46%
    10:00 +7°C° 0 mm 1 mps 728 mmHg 39%
    11:00 +8°C° 0 mm 1 mps 728 mmHg 40%
    12:00 +9°C° 0 mm 1 mps 728 mmHg 40%
    13:00 +10°C° 0 mm 1 mps 728 mmHg 41%
    14:00 +7°C° 0 mm 1 mps 727 mmHg 48%
    15:00 +5°C° 0 mm 1 mps 727 mmHg 56%
    16:00 +3°C° 0 mm 1 mps 726 mmHg 63%
    17:00 +2°C° 0 mm 1 mps 726 mmHg 62%
    18:00 +2°C° 0 mm 1 mps 726 mmHg 61%
    19:00 +2°C° 0 mm 1 mps 726 mmHg 60%
    20:00 +2°C° 0 mm 1 mps 726 mmHg 60%
    21:00 +2°C° 0 mm 1 mps 726 mmHg 59%
    22:00 +2°C° 0 mm 1 mps 725 mmHg 59%
    23:00 +2°C° 0 mm 1 mps 725 mmHg 59%

    11 December, Sunday

    Time Temperature Precipitation Wind Pressure Humidity
    00:00 +2°C° 0 mm 1 mps 725 mmHg 59%
    01:00 +2°C° 0 mm 1 mps 724 mmHg 59%
    02:00 +2°C° 0 mm 1 mps 724 mmHg 58%
    03:00 +2°C° 0 mm 1 mps 723 mmHg 57%
    04:00 +2°C° 0 mm 1 mps 723 mmHg 56%
    05:00 +2°C° 0 mm 1 mps 723 mmHg 57%
    06:00 +2°C° 0 mm 1 mps 722 mmHg 58%
    07:00 +1°C° 0 mm 1 mps 722 mmHg 59%
    08:00 +3°C° 0 mm 1 mps 722 mmHg 53%
    09:00 +5°C° 0 mm 1 mps 722 mmHg 48%
    10:00 +7°C° 0 mm 1 mps 722 mmHg 42%
    11:00 +8°C° 0 mm 1 mps 722 mmHg 43%
    12:00 +8°C° 0 mm 1 mps 721 mmHg 45%
    13:00 +8°C° 0 mm 2 mps 721 mmHg 46%
    14:00 +7°C° 0 mm 2 mps 721 mmHg 52%
    15:00 +5°C° 0 mm 2 mps 720 mmHg 58%
    16:00 +3°C° 0 mm 2 mps 720 mmHg 64%
    17:00 +3°C° 0.1 mm 3 mps 721 mmHg 67%
    18:00 +3°C° 0.1 mm 3 mps 721 mmHg 69%
    19:00 +3°C° 0.1 mm 3 mps 721 mmHg 72%
    20:00 +3°C° 0 mm 4 mps 722 mmHg 75%
    21:00 +3°C° 0 mm 4 mps 722 mmHg 77%
    22:00 +3°C° 0 mm 4 mps 722 mmHg 80%
    23:00 +1°C° 0 mm 4 mps 722 mmHg 81%
    Show more